Location: Cisewo
(53.3833°N, 14.9000°E)
Time: 11:40:37
(UTC+00:00)

Cosmos 44 Rocket - Pass Details

Date: 18 April 2021
Orbit: 636 x 754 km, 65.1° (Epoch: 14 May)

Event Time Altitude Azimuth Distance (km) Brightness Sun altitude
Exits shadow 20:57:57 29° 96° (E) 1,339 4.4 -20.5°
Drops below altitude 10° 21:01:31 10° 57° (ENE) 2,273 6.0 -20.7°
Sets 21:04:08 0° 48° (NE) 3,210 6.9 -20.9°
